TIME,DELAY(SENSOR),PRES,OXYGEN,RAWTEMP,T(OPTODE),TCPHASE,FLUOR,BETA(BETA700),BETA(BETA412),BETA(BETA440),CDOM,C(CSC),ED(ED412.20),ED(ED444.00),ED(ED489.60),ED(ED554.30),LU(LU412.10),LU(LU443.90),LU(LU489.70),LU(LU554.70),COMP,TILTX,TILTY,CHECK
1369281985,5808,868.0000000000000000,31.9392509460449220,560.8170166015625000,4.4605731964111330,56.7844009399414060,55,105,98,77,82,15639,0,0,0,0,2147120036,2147770038,2147573878,2147566884,935,2,13,20759
1369285581,5808,941.4899902343750000,35.9743614196777340,567.8458862304688000,4.2424788475036620,56.2061500549316400,55,99,100,78,81,15637,0,0,0,0,2147120310,2147767350,2147568832,2147571117,318,2,13,39125
1369289181,5810,956.9500122070312000,36.5471382141113300,568.8831787109375000,4.2102599143981930,56.1270790100097660,55,100,100,78,81,15634,0,0,0,0,2147121865,2147767314,2147569152,2147567323,123,2,13,46310
1369292781,5809,977.0200195312500000,39.6799392700195300,571.6754760742188000,4.1234822273254395,55.6786613464355500,54,97,101,78,80,15633,0,0,0,0,2147122633,2147769142,2147572397,2147565668,2849,2,13,9469
1369296381,5811,983.6300048828125000,38.7376289367675800,573.0607910156250000,4.0804061889648440,55.8404197692871100,54,97,100,79,82,15636,0,0,0,0,2147121115,2147765394,2147569316,2147567149,203,2,13,57727
1369299981,5809,984.9799804687500000,35.4513092041015600,573.0518798828125000,4.0806808471679690,56.3393287658691400,56,105,99,77,83,15634,0,0,0,0,2147119945,2147768246,2147569024,2147566646,120,2,13,61587
1369303581,5809,990.6400146484375000,39.9389381408691400,573.5573730468750000,4.0649590492248535,55.6646118164062500,55,96,100,77,80,15634,0,0,0,0,2147118125,2147765284,2147572434,2147565997,3568,2,13,59509
1369307181,5809,987.5999755859375000,38.4313011169433600,573.3707275390625000,4.0707659721374510,55.8856010437011700,55,98,100,78,82,15633,0,0,0,0,2147121545,2147773147,2147571373,2147568630,38,2,13,29759
1369310781,5810,990.6799926757812000,38.8871307373046900,573.7307739257812000,4.0595650672912600,55.8248710632324200,54,98,99,78,80,15634,0,0,0,0,2147118235,2147769645,2147573211,2147566802,3343,2,13,5894
1369314381,5808,991.3800048828125000,38.4159584045410160,572.7498168945312000,4.0900778770446780,55.8802680969238300,55,98,100,78,81,15635,0,0,0,0,2147119908,2147779483,2147570934,2147570505,154,2,13,62563
1369317981,5811,995.7399902343750000,37.1187705993652340,572.4343872070312000,4.0998840332031250,56.0799293518066400,55,98,100,77,82,15632,0,0,0,0,2147119277,2147775442,2147573348,2147569984,22,2,13,63748
1369321581,5808,991.1199951171875000,39.6524314880371100,572.6480712890625000,4.0932412147521970,55.6965789794921900,55,97,100,78,81,15634,0,0,0,0,2147118710,2147774966,2147571355,2147569014,66,2,13,318
1369325181,5808,993.4199829101562000,39.0231704711914060,572.7855834960938000,4.0889630317687990,55.7906303405761700,54,97,104,77,81,15633,0,0,0,0,2147121261,2147775040,2147568036,2147568566,346,2,13,54212
1369328781,5810,994.6599731445312000,38.1736907958984400,573.4354858398438000,4.0687499046325680,55.9262199401855500,54,103,100,77,81,15631,0,0,0,0,2147122605,2147768064,2147572653,2147564470,56,2,13,16053
1369332381,5809,998.9400024414062000,38.0882797241210940,573.2001953125000000,4.0760707855224610,55.9360389709472660,55,97,100,77,82,15634,0,0,0,0,2147124059,2147772461,2147572937,2147567762,626,2,13,8743
1369335981,5809,997.7999877929688000,38.5927391052246100,573.4118041992188000,4.0694890022277830,55.8592910766601560,55,98,99,78,81,15634,0,0,0,0,2147122742,2147773403,2147570651,2147565696,675,3,13,64481
1369339581,5810,1005.9899902343750000,39.7434501647949200,572.8037719726562000,4.0883979797363280,55.6855583190918000,55,98,100,79,81,15628,0,0,0,0,2147123337,2147768091,2147573485,2147566098,3577,2,13,29833
1369343181,5811,1003.0700073242188000,39.0210304260253900,572.5031127929688000,4.0977520942687990,55.7888488769531250,54,97,100,78,81,15631,0,0,0,0,2147122587,2147769755,2147566390,2147566646,306,2,13,33612
1369346781,5810,1003.7299804687500000,39.6163482666015600,572.7161865234375000,4.0911240577697750,55.6999092102050800,55,101,99,78,81,15632,0,0,0,0,2147123675,2147775168,2147570587,2147565467,3505,2,13,21981
1369350381,5810,998.7999877929688000,39.5840988159179700,572.8687133789062000,4.0863819122314450,55.7102699279785160,55,97,99,78,82,15630,0,0,0,0,2147120164,2147770496,2147565622,2147566564,805,2,13,7116
1369353981,5809,1000.8599853515625000,37.7231597900390600,573.2733154296875000,4.0737948417663570,55.9963912963867200,54,97,99,77,81,15627,0,0,0,0,2147120475,2147767908,2147569526,2147566518,3572,2,13,15154
1369357581,5811,1003.5000000000000000,33.9226684570312500,573.5238037109375000,4.0660037994384770,56.5900497436523440,55,97,98,78,82,15623,0,0,0,0,2147123419,2147771602,2147569773,2147564114,134,2,13,6472
1369361181,5810,1003.4699707031250000,37.5402107238769500,573.2479248046875000,4.0745868682861330,56.0233917236328100,55,98,100,76,81,15626,0,0,0,0,2147120192,2147769901,2147573833,2147566400,228,2,13,44034
1369364781,5809,998.1500244140625000,38.7762985229492200,573.8618774414062000,4.0554847717285160,55.8385391235351560,56,99,100,78,81,15627,0,0,0,0,2147124635,2147766793,2147570651,2147567716,1166,2,13,7065
1369368381,5810,1001.6300048828125000,37.6944885253906250,574.3012695312500000,4.0418190956115720,56.0069198608398440,55,99,100,79,82,15627,0,0,0,0,2147123565,2147776804,2147569755,2147568329,3387,2,13,26448
1369371981,5811,996.4799804687500000,35.4534988403320300,574.3646850585938000,4.0398449897766110,56.3574600219726560,54,97,100,78,81,15623,0,0,0,0,2147122688,2147769371,2147571529,2147564013,139,2,13,15307
1369375581,5808,998.7199707031250000,40.0665397644043000,574.4672241210938000,4.0366568565368650,55.6509895324707000,55,98,100,78,81,15626,0,0,0,0,2147119442,2147769316,2147572205,2147568045,192,2,13,34162
1369379181,5809,1001.6099853515625000,40.5246887207031250,573.9340209960938000,4.0532441139221190,55.5754699707031250,54,99,99,77,81,15621,0,0,0,0,2147119872,2147769417,2147571373,2147564672,519,2,13,64973
1369382781,5812,1003.6500244140625000,36.0823211669921900,573.8248291015625000,4.0566430091857910,56.2520484924316400,56,97,99,77,82,15626,0,0,0,0,2147121115,2147770523,2147573494,2147565366,20,2,13,28324
1369386381,5810,1005.1799926757812000,37.8821411132812500,573.0045776367188000,4.0821509361267090,55.9686698913574200,54,105,101,77,81,15621,0,0,0,0,2147126528,2147768795,2147575643,2147569024,3261,2,13,50481
1369389981,5807,999.5700073242188000,38.4621505737304700,572.7819824218750000,4.0890769958496090,55.8796615600585940,54,98,100,77,81,15620,0,0,0,0,2147123072,2147770733,2147567204,2147566464,579,2,13,40311
1369393581,5811,1008.7100219726562000,38.4652290344238300,572.2647705078125000,4.1051602363586430,55.8719291687011700,56,98,100,78,81,15619,0,0,0,0,2147119954,2147765412,2147573860,2147568064,3231,2,13,22732
1369397181,5812,1007.4199829101562000,38.0877304077148440,572.7053222656250000,4.0914630889892580,55.9282608032226560,56,97,99,79,81,15621,0,0,0,0,2147119808,2147771593,2147570898,2147568338,3387,2,13,37862
1369400781,5812,1005.0399780273438000,37.4129981994628900,572.6807250976562000,4.0922279357910160,56.0382194519043000,54,97,98,82,81,15619,0,0,0,0,2147123337,2147765513,2147577728,2147567323,3254,2,13,17062
1369404381,5810,1003.2399902343750000,36.6096801757812500,573.6168823242188000,4.0631079673767090,56.1660499572753900,54,99,100,79,80,15620,0,0,0,0,2147123693,2147764882,2147570898,2147566354,3446,2,13,54626
1369407981,5811,1003.7999877929688000,39.2689590454101560,573.2067871093750000,4.0758628845214840,55.7627792358398440,54,101,99,78,81,15618,0,0,0,0,2147122358,2147768292,2147570852,2147563629,3357,2,13,54534
1369411581,5810,995.4299926757812000,39.1733016967773440,574.1500244140625000,4.0465240478515625,55.7846984863281250,54,99,99,78,81,15620,0,0,0,0,2147120877,2147764973,2147571245,2147566281,3437,3,13,46060
1369415181,5808,1000.2500000000000000,39.5985488891601560,574.4613037109375000,4.0368390083312990,55.7207183837890600,54,100,99,77,81,15621,0,0,0,0,2147123154,2147773037,2147574345,2147567369,231,3,13,51879
1369418781,5813,994.9799804687500000,40.1771087646484400,574.1115722656250000,4.0477199554443360,55.6367301940918000,55,98,99,78,81,15617,0,0,0,0,2147121892,2147770148,2147571894,2147566747,3094,2,13,58793
1369422381,5809,994.5499877929688000,40.3280181884765600,574.4661865234375000,4.0366878509521480,55.6134605407714840,54,98,99,78,81,15619,0,0,0,0,2147119387,2147768749,2147569362,2147566829,467,2,13,57205
1369425655,5810,1002.6099853515625000,39.3010787963867200,574.9600219726562000,4.0213198661804200,55.7721290588378900,53,99,100,78,81,15614,0,0,0,0,2147120054,2147771382,2147572580,2147564214,3356,2,13,10305
